Lafayette, IN

2:22 AM EDT on May 25, 2017 (GMT -0400)
Purdue Univ

Weather History for KLAF - November, 2011

Change the Weather History Date:

Saturday, November 19, 2011

  Actual Average Record
Temperature  
Mean Temperature 55 °F 41 °F  
Max Temperature 62 °F 50 °F 70 °F (1985)
Min Temperature 47 °F 33 °F 13 °F (2014)
Degree Days  
Heating Degree Days 10 24  
Month to date heating degree days 286 374  
Since 1 July heating degree days 700 808  
Cooling Degree Days 0 0  
Month to date cooling degree days 0 0  
Year to date cooling degree days 1246 982  
Growing Degree Days 3 (Base 50)    
Moisture  
Dew Point 37 °F    
Average Humidity 51    
Maximum Humidity 67    
Minimum Humidity 34    
Precipitation  
Precipitation T in 0.10 in 1.90 in (1991)
Month to date precipitation 1.88 1.85  
Year to date precipitation 37.54 32.95  
Sea Level Pressure  
Sea Level Pressure 29.96 in    
Wind  
Wind Speed 13 mph (SSW)    
Max Wind Speed 23 mph    
Max Gust Speed 32 mph    
Visibility 10 miles    
Events      
T = Trace of Precipitation, MM = Missing Value Source: NWS Daily Summary

Daily Weather History Graph

Daily Weather History Graph

Search for Another Location

Airport or City:

Trip Planner

Search our weather history database for the weather conditions in past years. The results will help you decide how hot, cold, wet, or windy it might be!

Date:

Astronomy

Nov. 19, 2011 Rise Set
Actual Time 7:38 AM EST 5:27 PM EST
Civil Twilight 7:08 AM EST 5:57 PM EST
Nautical Twilight 6:35 AM EST 6:30 PM EST
Astronomical Twilight 6:03 AM EST 7:02 PM EST
Moon 12:57 AM EST (11/19) 1:46 PM EST (11/19)
Length of Visible Light 10h 48m
Length of Day
9h 49m
Last Quarter, 38% of the Moon is Illuminated
Nov 19
Last Quarter
Nov 25
New
Dec 2
First Quarter
Dec 10
Full
Dec 17
Last Quarter

Hourly Weather History & Observations

Time (EST) Temp. Dew Point Humidity Pressure Visibility Wind Dir Wind Speed Gust Speed Precip Events Conditions
12:54 AM 48.0 °F 21.9 °F 36% 30.03 in 10.0 mi SW 9.2 mph - N/A   Overcast
1:54 AM 46.9 °F 24.1 °F 41% 30.04 in 10.0 mi SSW 6.9 mph - N/A   Overcast
2:54 AM 48.0 °F 26.1 °F 42% 30.04 in 10.0 mi SW 11.5 mph 23.0 mph N/A   Overcast
3:54 AM 46.9 °F 27.0 °F 46% 30.04 in 10.0 mi SSW 11.5 mph - N/A   Mostly Cloudy
4:54 AM 46.9 °F 28.0 °F 48% 30.03 in 10.0 mi SSW 10.4 mph - N/A   Mostly Cloudy
5:54 AM 48.0 °F 30.0 °F 50% 30.02 in 10.0 mi SSW 10.4 mph 19.6 mph N/A   Overcast
6:54 AM 48.9 °F 30.0 °F 48% 30.00 in 10.0 mi SSW 9.2 mph 20.7 mph N/A   Overcast
7:54 AM 48.9 °F 32.0 °F 52% 30.00 in 10.0 mi SSW 11.5 mph 23.0 mph N/A   Overcast
8:54 AM 48.9 °F 32.0 °F 52% 30.00 in 10.0 mi SSW 11.5 mph 19.6 mph N/A   Overcast
9:54 AM 48.9 °F 33.1 °F 54% 30.01 in 10.0 mi SSW 11.5 mph 23.0 mph N/A   Overcast
10:54 AM 48.9 °F 34.0 °F 56% 30.01 in 10.0 mi SSW 16.1 mph 25.3 mph N/A   Overcast
11:54 AM 48.9 °F 35.1 °F 59% 29.99 in 10.0 mi SSW 15.0 mph 21.9 mph N/A   Overcast
12:54 PM 48.9 °F 37.9 °F 66% 29.94 in 10.0 mi SSW 15.0 mph 23.0 mph 0.00 in   Overcast
1:54 PM 53.1 °F 39.9 °F 61% 29.91 in 10.0 mi SSW 18.4 mph 25.3 mph N/A   Mostly Cloudy
2:54 PM 53.1 °F 39.0 °F 59% 29.89 in 10.0 mi SSW 11.5 mph 21.9 mph 0.00 in   Overcast
3:54 PM 54.0 °F 39.9 °F 59% 29.88 in 10.0 mi SSW 8.1 mph - N/A   Overcast
4:54 PM 55.9 °F 42.1 °F 60% 29.88 in 10.0 mi SW 9.2 mph - N/A   Overcast
5:54 PM 57.9 °F 43.0 °F 58% 29.88 in 10.0 mi SSW 12.7 mph 21.9 mph N/A   Overcast
6:54 PM 59.0 °F 45.0 °F 60% 29.90 in 10.0 mi SW 20.7 mph 29.9 mph N/A   Overcast
7:54 PM 57.9 °F 46.0 °F 65% 29.88 in 10.0 mi SSW 16.1 mph 27.6 mph N/A   Overcast
8:54 PM 57.9 °F 46.9 °F 67% 29.88 in 10.0 mi SW 12.7 mph 20.7 mph N/A   Overcast
9:54 PM 60.1 °F 48.0 °F 64% 29.88 in 10.0 mi SW 16.1 mph 25.3 mph N/A   Overcast
10:54 PM 60.1 °F 48.0 °F 64% 29.90 in 10.0 mi SW 13.8 mph 21.9 mph N/A   Clear
11:54 PM 62.1 °F 50.0 °F 65% 29.91 in 10.0 mi SW 16.1 mph 24.2 mph N/A   Overcast